Terminal Aerodrome Forecast
Issued by NWS

Home | Current Version | Previous Version | Text Only | Print | Product List | Glossary On
Versions: 1 2 3 4 5 6 7 8 9 10 11 12 13 14 15 16 17 18 19 20 21 22 23 24 25 26 27 28 29 30 31 32 33 34 35 36 37 38 39 40 41 42 43 44 45 46 47 48 49 50
000
FTUS41 KBOX 240542
TAFMHT
TAF
KMHT 240542Z 2406/2506 23004KT 2SM -SHRA BR BKN006 OVC100
     FM240900 34008KT 6SM -SHRA BKN006 OVC120
     FM241200 34007KT P6SM BKN015 OVC120
     FM241400 35007KT P6SM BKN030 BKN120
     FM241700 34006KT P6SM SCT050
     FM241900 34006KT P6SM SCT250=

USA.gov is the U.S. government's official web portal to all federal, state and local government web resources and services.